Weather in Dno

Russia / Pskov Oblast     57°49′36″N   29°57′46″E
temp.,
°C
wind,
m/s
gust,
m/s
humid.,
%
clouds,
%
prec.,
mm/h
press.,
hPa
HPBL,
m
21 april, wed
wed2100:00+4ssw119097 0.0 101410
03:00+5nne2287100 0.0 101279
06:00+4ne1389100 0.0 1009141
09:00+6n1274100 0.0 1008479
12:00+9nw246390 0.0 10051153
15:00+9w3462100 0.3 10041104
18:00+10wsw355771 0.3 10031265
21:00+5s37805 0.3 1003134
22 april, thu
thu2200:00+5s3991100 0.2 1003217
03:00+5ssw3995100 0.3 1004224
06:00+4ssw2793100 0.0 1004165
09:00+9wsw486976 0.0 1006591
12:00+13sw484944 0.0 10061566
15:00+12ssw365872 0.1 10071117
18:00+9ssw3890100 5.1 1006539
21:00+7ssw2687100 6.7 1007431
23 april, fri
fri2300:00+5ssw31089100 0.0 1006368
03:00+3s2691100 0.0 1006195
06:00+2s39917 0.0 1006431
09:00+5ssw5107545 0.1 10071312
12:00+6ssw6961100 0.2 10071705
15:00+7ssw695982 0.8 10081647
18:00+7ssw476097 0.4 10081390
21:00+3s37835 0.6 1009172
24 april, sat
sat2400:00+1sw38887 0.0 1009369
03:00+1ssw378850 0.0 1009395
06:00−1sw269512 0.0 1009226
09:00+3sw346963 0.0 1008920
12:00+5sw455798 0.1 10071585
15:00+5sw346090 0.2 10071108
18:00+5wsw2367100 0.6 1006919
21:00+2sw249585 1.1 1006167
25 april, sun
sun2500:00+1wsw249783 0.1 1005139
03:00+1w359587 0.1 1005285
06:00−1w259764 0.1 1005206
09:00+2wsw3587100 0.1 1004759
12:00+3sw357696 0.1 1004878
15:00+5sw4670100 1.0 10031389
18:00+5wsw347359 1.0 1003915
21:00+2w3894100 0.4 1004590